Location: Sungai Laei
(2.6000°N, 113.7167°E)
Time: 10:51:00
(UTC+00:00)

Cosmos 2263 - Pass Details

Date: 22 May 2022
Orbit: 831 x 866 km, 70.9° (Epoch: 06 July)

Event Time Altitude Azimuth Distance (km) Brightness Sun altitude
Rises 21:13:35 0° 347° (NNW) 3,406 7.5 -15.0°
Reaches altitude 10° 21:16:02 10° 349° (N) 2,477 6.8 -14.4°
Maximum altitude 21:21:43 77° 75° (ENE) 884 4.4 -13.1°
Drops below altitude 10° 21:27:29 10° 160° (SSE) 2,501 6.6 -11.8°
Sets 21:29:57 0° 162° (SSE) 3,441 7.3 -11.2°
